Hourly Data Report for October 04, 2015

All times are specified in Local Standard Time (LST). Add 1 hour to adjust for Daylight Saving Time where and when it is observed.

ST LEONARD CS
NEW BRUNSWICK

47°09'28.050" N
67°49'55.014" W
245.00 m
810I001
71019
WIY

Download Data

Hourly Data (October 2015)
Hourly Data Report for October 4, 2015
Temp Definition
°C
Dew Point Temp Definition
°C
Rel Hum Definition
%
Wind Dir Definition
10's deg

Wind Spd Definition
km/h
Visibility Definition
km
Stn Press Definition
kPa
Hmdx Definition


Wind Chill Definition


Weather Definition


TIME
00:00 -1.3 -2.4 92 23 2   100.54   -2 LegendNANA
01:00 -1.2 -1.9 95 34 4   100.49   -3 LegendNANA
02:00 -1.7 -2.2 96 32 5   100.52   -4 LegendNANA
03:00 -0.5 -1.2 95 1 7   100.47   -3 LegendNANA
04:00 -2.0 -2.9 94 34 5   100.44   -4 LegendNANA
05:00 -1.6 -2.1 97 36 7   100.43   -4 LegendNANA
06:00 -2.5 -3.0 96 34 4   100.44   -4 LegendNANA
07:00 -2.4 -3.0 96 28 2   100.44   -3 LegendNANA
08:00 -0.3 -1.1 94 1 5   100.45   -2 LegendNANA
09:00 3.0 0.9 86 35 6   100.44     LegendNANA
10:00 6.1 1.6 73 35 6   100.42     LegendNANA
11:00 10.5 2.6 58 26 3   100.36     LegendNANA
12:00 11.6 3.1 56 26 7   100.31     LegendNANA
13:00 12.8 2.6 50 31 7   100.23     LegendNANA
14:00 14.1 1.3 42 35 4   100.11     LegendNANA
15:00 15.7 1.9 40 19 2   100.05     LegendNANA
16:00 14.4 3.3 47 27 8   99.99     LegendNANA
17:00 13.4 3.9 52 29 7   99.95     LegendNANA
18:00 10.3 4.1 65 33 4   99.92     LegendNANA
19:00 7.3 5.1 86 35 3   99.88     LegendNANA
20:00 5.9 4.3 90 1 4   99.87     LegendNANA
21:00 4.9 3.2 89 15 3   99.83     LegendNANA
22:00 3.9 2.9 93 5 3   99.82     LegendNANA
23:00 3.6 2.4 92 16 4   99.83     LegendNANA

Notes on Data Quality.

Legend

  • E = Estimated
  • M = Missing
  • NA = Not Available
  • ‡ = Partner data that is not subject to review by the National Climate Archives
Date modified: